KB0OLA Weather Reports


time (UTC)temp
C
wind
direction
speed
KPH
gust
KPH
rain 1hr
cm
rain 24hr
cm
rain mn
cm
humidity
%
barometer
mb
20260508213518 23 338 4.8 9.7 0.00 0.00 0.00 23 1016.2
20260508212517 23 248 8.0 17.7 0.00 0.00 0.00 23 1016.3
20260508211517 23 315 4.8 11.3 0.00 0.00 0.00 24 1016.3
20260508210517 23 293 6.4 16.1 0.00 0.00 0.00 26 1016.4
20260508205517 23 270 6.4 14.5 0.00 0.00 0.00 23 1016.5
20260508204518 23 248 8.0 22.5 0.00 0.00 0.00 22 1016.5
20260508203518 23 293 3.2 12.9 0.00 0.00 0.00 24 1016.6
20260508202518 23 248 9.7 17.7 0.00 0.00 0.00 23 1016.6
20260508201537 23 270 4.8 14.5 0.00 0.00 0.00 23 1016.7
20260508200517 22 293 4.8 16.1 0.00 0.00 0.00 24 1016.7
20260508195517 22 203 3.2 11.3 0.00 0.00 0.00 24 1016.8
20260508194518 22 248 6.4 14.5 0.00 0.00 0.00 27 1016.8
20260508193537 22 248 6.4 17.7 0.00 0.00 0.00 29 1016.9
20260508192517 21 270 6.4 16.1 0.00 0.00 0.00 28 1016.9
20260508191517 21 248 6.4 16.1 0.00 0.00 0.00 28 1017.0
20260508190517 21 270 4.8 11.3 0.00 0.00 0.00 28 1017.1
20260508185517 21 248 6.4 17.7 0.00 0.00 0.00 29 1017.0
20260508184538 21 203 3.2 11.3 0.00 0.00 0.00 32 1017.2
20260508183517 21 203 3.2 9.7 0.00 0.00 0.00 32 1017.3
20260508182537 21 225 1.6 6.4 0.00 0.00 0.00 31 1017.4
20260508181517 20 248 3.2 11.3 0.00 0.00 0.00 33 1017.5
20260508180517 20 248 4.8 14.5 0.00 0.00 0.00 34 1017.5
20260508175517 20 225 3.2 16.1 0.00 0.00 0.00 35 1017.7
20260508174517 20 203 3.2 12.9 0.00 0.00 0.00 37 1017.7
20260508173517 20 248 6.4 12.9 0.00 0.00 0.00 38 1017.7
20260508172518 20 203 1.6 8.0 0.00 0.00 0.00 40 1017.6
20260508171517 20 248 6.4 14.5 0.00 0.00 0.00 37 1017.7
20260508170517 19 225 1.6 11.3 0.00 0.00 0.00 36 1017.7
20260508165517 18 203 4.8 11.3 0.00 0.00 0.00 39 1017.6
20260508164517 18 0.0 0.0 0.00 0.00 0.00 37 1017.6
20260508163517 18 0.0 0.0 0.00 0.00 0.00 36 1017.5
20260508162517 17 0.0 0.0 0.00 0.00 0.00 41 1017.5
20260508161517 17 0.0 0.0 0.00 0.00 0.00 44 1017.4
20260508160517 17 0.0 0.0 0.00 0.00 0.00 43 1017.5
20260508155517 17 0.0 0.0 0.00 0.00 0.00 44 1017.5
20260508154516 16 0.0 0.0 0.00 0.00 0.00 45 1017.4
20260508153516 16 0.0 0.0 0.00 0.00 0.00 47 1017.4
20260508152516 15 0.0 0.0 0.00 0.00 0.00 48 1017.4
20260508151517 15 0.0 0.0 0.00 0.00 0.00 49 1017.3
20260508150516 13 0.0 0.0 0.00 0.00 0.00 49 1017.3
20260508145518 13 0.0 0.0 0.00 0.00 0.00 51 1017.2
20260508144517 12 0.0 0.0 0.00 0.00 0.00 53 1017.1
20260508143517 12 0.0 0.0 0.00 0.00 0.00 54 1017.0
20260508142516 11 0.0 0.0 0.00 0.00 0.00 56 1017.0
20260508141518 10 0.0 0.0 0.00 0.00 0.00 62 1016.9
20260508140519 9 0.0 0.0 0.00 0.00 0.00 65 1016.8
20260508135518 8 0.0 0.0 0.00 0.00 0.00 66 1016.8
20260508134518 8 0.0 0.0 0.00 0.00 0.00 64 1016.7
20260508133519 7 0.0 0.0 0.00 0.00 0.00 64 1016.5
20260508132518 7 0.0 0.0 0.00 0.00 0.00 62 1016.5
20260508131518 7 0.0 0.0 0.00 0.00 0.00 62 1016.4
20260508130518 6 0.0 0.0 0.00 0.00 0.00 61 1016.2
20260508125558 7 0.0 0.0 0.00 0.00 0.00 61 1016.2
20260508124518 7 0.0 0.0 0.00 0.00 0.00 60 1016.0
20260508123519 7 0.0 0.0 0.00 0.00 0.00 60 1015.9
20260508122518 7 0.0 0.0 0.00 0.00 0.00 58 1015.8
20260508121538 7 0.0 0.0 0.00 0.00 0.00 58 1015.7
20260508120518 7 0.0 0.0 0.00 0.00 0.00 58 1015.6
20260508115518 7 0.0 0.0 0.00 0.00 0.00 59 1015.5
20260508114518 7 0.0 0.0 0.00 0.00 0.00 59 1015.5
20260508113518 7 0.0 0.0 0.00 0.00 0.00 60 1015.5
20260508112518 7 0.0 0.0 0.00 0.00 0.00 60 1015.4
20260508111538 7 0.0 0.0 0.00 0.00 0.00 60 1015.4
20260508110517 7 0.0 0.0 0.00 0.00 0.00 60 1015.4
20260508105518 7 0.0 0.0 0.00 0.00 0.00 60 1015.3
20260508104518 8 0.0 0.0 0.00 0.00 0.00 58 1015.3
20260508103517 8 0.0 0.0 0.00 0.00 0.00 57 1015.2
20260508102537 8 0.0 0.0 0.00 0.00 0.00 57 1015.2
20260508101518 8 0.0 0.0 0.00 0.00 0.00 57 1015.2
20260508100517 8 0.0 0.0 0.00 0.00 0.00 56 1015.1
20260508095517 8 0.0 0.0 0.00 0.00 0.00 57 1015.1
20260508094517 8 0.0 0.0 0.00 0.00 0.00 56 1015.2
20260508093518 8 0.0 0.0 0.00 0.00 0.00 55 1015.2
20260508092537 8 0.0 0.0 0.00 0.00 0.00 55 1015.0
20260508091517 9 0.0 0.0 0.00 0.00 0.00 55 1015.0
20260508090517 9 0.0 0.0 0.00 0.00 0.00 56 1015.0
20260508085517 9 0.0 0.0 0.00 0.00 0.00 56 1014.9
20260508084517 8 0.0 0.0 0.00 0.00 0.00 58 1015.0
20260508083538 8 0.0 0.0 0.00 0.00 0.00 60 1014.9
20260508082518 8 0.0 0.0 0.00 0.00 0.00 61 1014.9
20260508081517 8 0.0 0.0 0.00 0.00 0.00 60 1014.9
20260508080537 8 0.0 0.0 0.00 0.00 0.00 59 1014.9
20260508075517 8 0.0 0.0 0.00 0.00 0.00 59 1014.9
20260508074517 8 0.0 0.0 0.00 0.00 0.00 58 1014.8
20260508073537 9 0.0 0.0 0.00 0.00 0.00 56 1014.9
20260508072517 10 0.0 0.0 0.00 0.00 0.00 55 1014.9
20260508071517 10 0.0 0.0 0.00 0.00 0.00 55 1014.9
20260508070517 10 0.0 0.0 0.00 0.00 0.00 53 1014.8
20260508065517 10 0.0 0.0 0.00 0.00 0.00 53 1014.8
20260508064517 10 0.0 0.0 0.00 0.00 0.00 53 1014.8
20260508063517 10 0.0 0.0 0.00 0.00 0.00 54 1014.6
20260508062517 10 0.0 0.0 0.00 0.00 0.00 54 1014.5
20260508061538 10 0.0 0.0 0.00 0.00 0.00 54 1014.5
20260508060537 10 0.0 0.0 0.00 0.00 0.00 54 1014.5
20260508055517 10 0.0 0.0 0.00 0.00 0.00 52 1014.4
20260508054518 11 0.0 0.0 0.00 0.00 0.00 51 1014.4
20260508053517 11 0.0 0.0 0.00 0.00 0.00 50 1014.4
20260508052517 12 0.0 0.0 0.00 0.00 0.00 48 1014.4
20260508051517 12 0.0 0.0 0.00 0.00 0.00 46 1014.3
20260508050517 13 0.0 0.0 0.00 0.00 0.00 44 1014.2
20260508045517 13 0.0 0.0 0.00 0.00 0.00 43 1014.2
20260508044517 13 0.0 0.0 0.00 0.00 0.00 43 1014.1
20260508043537 13 0.0 0.0 0.00 0.00 0.00 44 1014.2
20260508042517 13 0.0 0.0 0.00 0.00 0.00 45 1014.1
20260508041517 13 0.0 0.0 0.00 0.00 0.00 45 1014.1
20260508040517 12 0.0 0.0 0.00 0.00 0.00 46 1014.1
20260508035517 12 0.0 0.0 0.00 0.00 0.00 47 1014.0
20260508034517 13 0.0 0.0 0.00 0.00 0.00 46 1014.0
20260508033517 13 0.0 0.0 0.00 0.00 0.00 46 1013.8
20260508032516 13 0.0 0.0 0.00 0.00 0.00 45 1013.7
20260508031516 15 0.0 0.0 0.00 0.00 0.00 44 1013.7
20260508030537 15 0.0 0.0 0.00 0.00 0.00 43 1013.6
20260508025516 16 0.0 0.0 0.00 0.00 0.00 42 1013.5
20260508024517 17 0.0 0.0 0.00 0.00 0.00 38 1013.5
20260508023517 18 0.0 0.0 0.00 0.00 0.00 35 1013.4
20260508022537 18 0.0 0.0 0.00 0.00 0.00 32 1013.4
20260508021537 20 0.0 0.0 0.00 0.00 0.00 31 1013.3
20260508020516 20 0.0 0.0 0.00 0.00 0.00 28 1013.3
20260508015517 21 0.0 0.0 0.00 0.00 0.00 28 1013.3
20260508014517 21 0.0 0.0 0.00 0.00 0.00 27 1013.3
20260508013517 21 0.0 0.0 0.00 0.00 0.00 27 1013.4
20260508012516 22 0.0 0.0 0.00 0.00 0.00 26 1013.3
20260508011516 22 0.0 1.6 0.00 0.00 0.00 26 1013.5
20260508010518 23 225 1.6 9.7 0.00 0.00 0.00 25 1013.6
20260508005518 23 0.0 0.0 0.00 0.00 0.00 26 1013.6
20260508004518 23 270 3.2 12.9 0.00 0.00 0.00 25 1013.5
20260508003518 23 158 4.8 11.3 0.00 0.00 0.00 25 1013.5
20260508002518 23 203 1.6 8.0 0.00 0.00 0.00 25 1013.5
20260508001518 23 180 1.6 8.0 0.00 0.00 0.00 25 1013.6
20260508000518 23 0.0 1.6 0.00 0.00 0.00 24 1013.9
20260507235518 23 248 1.6 6.4 0.00 0.00 0.00 24 1014.0
20260507234518 23 0.0 0.0 0.00 0.00 0.00 26 1014.1
20260507233518 23 180 1.6 9.7 0.00 0.00 0.00 25 1014.2
20260507232518 22 0.0 0.0 0.00 0.00 0.00 27 1014.3
20260507231519 22 180 3.2 8.0 0.00 0.00 0.00 26 1014.4
20260507230558 22 0 1.6 6.4 0.00 0.00 0.00 26 1014.5
20260507225518 22 0 1.6 11.3 0.00 0.00 0.00 26 1014.7
20260507224518 21 0.0 0.0 0.00 0.00 0.00 27 1015.0
20260507223518 21 0.0 0.0 0.00 0.00 0.00 29 1015.1
20260507222518 21 0.0 3.2 0.00 0.00 0.00 28 1015.2
20260507221518 21 270 1.6 8.0 0.00 0.00 0.00 27 1015.4
20260507220517 21 248 4.8 14.5 0.00 0.00 0.00 28 1015.4
20260507215519 21 225 1.6 11.3 0.00 0.00 0.00 26 1015.5
20260507214517 21 270 3.2 14.5 0.00 0.00 0.00 26 1015.6